,,PA_Meas_PMT16A,,PR_Meas_QMR101_102,,RH_Meas_QMH101,,SR_Meas_QMS101,,TA_Meas_QMH101,,GenWind,,GenWind,
time,status,PA,status,PR,status,RH,status,SR,status,TA,status,DirAvg,status,SpdAvg,
2015-11-28, 07:04:04,VALID,917.669,VALID,0,VALID,101.315,VALID,100.887,VALID,19.5663,VALID,144,VALID,0,
2015-11-28, 07:05:04,VALID,917.665,VALID,0,VALID,101.338,VALID,94.1184,VALID,19.6263,VALID,172,VALID,0,
2015-11-28, 07:06:04,VALID,917.697,VALID,0,VALID,101.353,VALID,90.7878,VALID,19.5858,VALID,174,VALID,1.04023,
2015-11-28, 07:08:04,VALID,917.702,VALID,0,VALID,101.33,VALID,104.218,VALID,19.6458,VALID,154,VALID,1.20508,
2015-11-28, 07:09:04,VALID,917.734,VALID,0,VALID,101.353,VALID,118.078,VALID,19.5858,VALID,176,VALID,1.79609,
2015-11-28, 07:10:04,VALID,917.735,VALID,0,VALID,101.338,VALID,143.219,VALID,19.6458,VALID,160,VALID,0.938281,
2015-11-28, 07:11:04,VALID,917.739,VALID,0,VALID,101.33,VALID,166.211,VALID,19.7238,VALID,178,VALID,1.15195,
2015-11-28, 07:12:04,VALID,917.771,VALID,0,VALID,101.33,VALID,177.063,VALID,19.7613,VALID,168,VALID,1.13477,
2015-11-28, 07:13:04,VALID,917.755,VALID,0,VALID,101.285,VALID,186.84,VALID,19.8978,VALID,169,VALID,0.4125,
2015-11-28, 07:14:04,VALID,917.761,VALID,0,VALID,101.262,VALID,194.146,VALID,19.9758,VALID,153,VALID,0.994922,
2015-11-28, 07:15:04,VALID,917.783,VALID,0,VALID,101.247,VALID,200.915,VALID,20.0749,VALID,174,VALID,0.996875,
2015-11-28, 07:16:04,VALID,917.784,VALID,0,VALID,101.254,VALID,208.758,VALID,20.1334,VALID,156,VALID,0.211719,
2015-11-28, 07:17:04,VALID,917.773,VALID,0,VALID,101.193,VALID,217.998,VALID,20.2894,VALID,176,VALID,0.494531,
2015-11-28, 07:18:04,VALID,917.784,VALID,0,VALID,101.224,VALID,227.238,VALID,20.2098,VALID,169,VALID,0.853906,
2015-11-28, 07:19:04,VALID,917.809,VALID,0,VALID,101.239,VALID,236.693,VALID,20.1318,VALID,171,VALID,1.10391,
2015-11-28, 07:20:04,VALID,917.799,VALID,0,VALID,101.254,VALID,244.644,VALID,20.1318,VALID,168,VALID,1.17656,
2015-11-28, 07:21:04,VALID,917.801,VALID,0,VALID,101.3,VALID,252.057,VALID,20.0733,VALID,174,VALID,1.38398,
2015-11-28, 07:22:04,VALID,917.817,VALID,0,VALID,101.292,VALID,250.875,VALID,20.1708,VALID,148,VALID,1.19883,
2015-11-28, 07:23:04,VALID,917.833,VALID,0,VALID,101.269,VALID,232.395,VALID,20.1708,VALID,164,VALID,1.31953,
2015-11-28, 07:24:04,VALID,917.836,VALID,0,VALID,101.285,VALID,233.685,VALID,20.1888,VALID,153,VALID,1.00898,
2015-11-28, 07:25:04,VALID,917.857,VALID,0,VALID,101.277,VALID,228.098,VALID,20.2879,VALID,144,VALID,0.791016,
2015-11-28, 07:26:04,VALID,917.866,VALID,0,VALID,101.308,VALID,229.817,VALID,20.2684,VALID,165,VALID,0.885547,
2015-11-28, 07:27:04,VALID,917.88,VALID,0,VALID,101.3,VALID,239.164,VALID,20.3253,VALID,148,VALID,0.322266,
2015-11-28, 07:28:04,VALID,917.878,VALID,0,VALID,101.3,VALID,250.66,VALID,20.3659,VALID,160,VALID,0.135547,
2015-11-28, 07:29:04,VALID,917.888,VALID,0,VALID,101.338,VALID,228.742,VALID,20.3253,VALID,162,VALID,0.901563,
2015-11-28, 07:30:04,VALID,917.905,VALID,0,VALID,101.338,VALID,196.617,VALID,20.4634,VALID,152,VALID,1.07539,
2015-11-28, 07:31:04,VALID,917.933,VALID,0,VALID,101.346,VALID,177.385,VALID,20.4423,VALID,161,VALID,1.07266,
2015-11-28, 07:32:04,VALID,917.908,VALID,0,VALID,101.399,VALID,165.782,VALID,20.4033,VALID,144,VALID,1.04961,
2015-11-28, 07:33:04,VALID,917.957,VALID,0,VALID,101.361,VALID,174.592,VALID,20.5609,VALID,155,VALID,0,
2015-11-28, 07:34:04,VALID,917.959,VALID,0,VALID,101.346,VALID,203.708,VALID,20.5999,VALID,153,VALID,0.0160156,
2015-11-28, 07:35:04,VALID,917.977,VALID,0,VALID,101.308,VALID,243.354,VALID,20.678,VALID,169,VALID,0,
2015-11-28, 07:36:04,VALID,918.019,VALID,0,VALID,101.285,VALID,297.075,VALID,20.8145,VALID,169,VALID,0,
2015-11-28, 07:37:04,VALID,918.028,VALID,0,VALID,101.247,VALID,307.926,VALID,21.0291,VALID,136,VALID,0,
2015-11-28, 07:38:04,VALID,918.031,VALID,0,VALID,101.224,VALID,312.976,VALID,21.0681,VALID,168,VALID,0,
2015-11-28, 07:39:04,VALID,918.042,VALID,0,VALID,101.262,VALID,222.94,VALID,21.0681,VALID,141,VALID,0,
2015-11-28, 07:40:04,VALID,918.065,VALID,0,VALID,101.315,VALID,221.973,VALID,21.047,VALID,158,VALID,0,
2015-11-28, 07:41:04,VALID,918.052,VALID,0,VALID,101.384,VALID,196.51,VALID,21.008,VALID,144,VALID,0,
2015-11-28, 07:42:04,VALID,918.082,VALID,0,VALID,101.43,VALID,218.428,VALID,21.008,VALID,176,VALID,0,
2015-11-28, 07:43:04,VALID,918.084,VALID,0,VALID,101.452,VALID,209.51,VALID,21.047,VALID,151,VALID,0,
2015-11-28, 07:44:04,VALID,918.14,VALID,0,VALID,101.491,VALID,185.873,VALID,20.9885,VALID,154,VALID,0,
2015-11-28, 07:45:04,VALID,918.134,VALID,0,VALID,101.521,VALID,175.559,VALID,20.969,VALID,160,VALID,0,
2015-11-28, 07:46:04,VALID,918.154,VALID,0,VALID,101.628,VALID,177.17,VALID,20.8324,VALID,152,VALID,0,
2015-11-28, 07:47:04,VALID,918.195,VALID,0,VALID,101.666,VALID,180.823,VALID,20.7723,VALID,156,VALID,0,
2015-11-28, 07:48:04,VALID,918.181,VALID,0,VALID,101.666,VALID,188.559,VALID,20.7934,VALID,127,VALID,0.951563,
2015-11-28, 07:49:04,VALID,918.203,VALID,0,VALID,101.59,VALID,242.387,VALID,20.891,VALID,127,VALID,0.415625,
2015-11-28, 07:50:04,VALID,918.209,VALID,0,VALID,101.567,VALID,277.628,VALID,21.008,VALID,126,VALID,0,
2015-11-28, 07:51:04,VALID,918.204,VALID,0,VALID,101.529,VALID,278.273,VALID,21.125,VALID,114,VALID,0,
2015-11-28, 07:52:04,VALID,918.231,VALID,0,VALID,101.719,VALID,225.089,VALID,20.969,VALID,141,VALID,0.507422,
2015-11-28, 07:53:04,VALID,918.216,VALID,0,VALID,101.91,VALID,222.296,VALID,20.8504,VALID,146,VALID,1.3207,
2015-11-28, 07:54:04,VALID,918.242,VALID,0,VALID,101.917,VALID,222.296,VALID,20.8714,VALID,130,VALID,1.15234,
2015-11-28, 07:55:04,VALID,918.234,VALID,0,VALID,101.872,VALID,225.626,VALID,20.9674,VALID,134,VALID,0.000390625,
2015-11-28, 07:56:04,VALID,918.249,VALID,0,VALID,101.849,VALID,220.899,VALID,21.0649,VALID,120,VALID,0,
2015-11-28, 07:57:04,VALID,918.264,VALID,0,VALID,101.765,VALID,219.502,VALID,21.2015,VALID,119,VALID,0,
2015-11-28, 07:58:04,VALID,918.303,VALID,0,VALID,101.818,VALID,221.006,VALID,21.2811,VALID,179,VALID,0.566016,
2015-11-28, 07:59:04,VALID,918.288,VALID,0,VALID,101.91,VALID,224.659,VALID,21.2421,VALID,170,VALID,0,
2015-11-28, 08:00:04,VALID,918.335,VALID,0,VALID,101.963,VALID,229.279,VALID,21.2405,VALID,163,VALID,0,
2015-11-28, 08:01:04,VALID,918.351,VALID,0,VALID,102.009,VALID,228.85,VALID,21.26,VALID,141,VALID,0,
2015-11-28, 08:02:04,VALID,918.374,VALID,0,VALID,102.062,VALID,227.56,VALID,21.2405,VALID,123,VALID,0,
2015-11-28, 08:03:04,VALID,918.385,VALID,0,VALID,102.207,VALID,227.131,VALID,21.1819,VALID,156,VALID,0,
2015-11-28, 08:04:04,VALID,918.388,VALID,0,VALID,102.161,VALID,228.42,VALID,21.2811,VALID,156,VALID,0,
2015-11-28, 08:05:04,VALID,918.409,VALID,0,VALID,102.222,VALID,230.354,VALID,21.2795,VALID,155,VALID,0,
2015-11-28, 08:06:04,VALID,918.401,VALID,0,VALID,102.306,VALID,234.544,VALID,21.2795,VALID,127,VALID,0.242969,
2015-11-28, 08:07:04,VALID,918.408,VALID,0,VALID,102.291,VALID,234.222,VALID,21.377,VALID,166,VALID,0,
2015-11-28, 08:08:04,VALID,918.434,VALID,0,VALID,102.405,VALID,234.651,VALID,21.338,VALID,148,VALID,0,
2015-11-28, 08:09:04,VALID,918.446,VALID,0,VALID,102.413,VALID,234.329,VALID,21.377,VALID,173,VALID,0,
2015-11-28, 08:10:04,VALID,918.415,VALID,0,VALID,102.527,VALID,232.503,VALID,21.3786,VALID,173,VALID,0,
2015-11-28, 08:11:04,VALID,918.422,VALID,0,VALID,102.71,VALID,231.321,VALID,21.3201,VALID,156,VALID,0.0078125,
2015-11-28, 08:12:04,VALID,918.422,VALID,0,VALID,102.748,VALID,228.85,VALID,21.3396,VALID,141,VALID,0,
2015-11-28, 08:13:04,VALID,918.424,VALID,0,VALID,102.779,VALID,225.412,VALID,21.3786,VALID,164,VALID,0,
2015-11-28, 08:14:04,VALID,918.38,VALID,0,VALID,102.954,VALID,221.114,VALID,21.3591,VALID,168,VALID,0.521484,
2015-11-28, 08:15:04,VALID,918.351,VALID,0,VALID,103.023,VALID,217.461,VALID,21.3786,VALID,182,VALID,0,
2015-11-28, 08:16:04,VALID,918.351,VALID,0,VALID,103.091,VALID,214.56,VALID,21.4372,VALID,162,VALID,0,
2015-11-28, 08:17:04,VALID,918.362,VALID,0,VALID,103.213,VALID,211.874,VALID,21.4567,VALID,170,VALID,0,
2015-11-28, 08:18:04,VALID,918.333,VALID,0,VALID,103.404,VALID,209.51,VALID,21.4372,VALID,165,VALID,0.00585938,
2015-11-28, 08:19:04,VALID,918.346,VALID,0,VALID,103.549,VALID,207.576,VALID,21.4372,VALID,158,VALID,0,
2015-11-28, 08:20:04,VALID,918.352,VALID,0,VALID,103.602,VALID,206.18,VALID,21.4957,VALID,151,VALID,0,
2015-11-28, 08:21:04,VALID,918.352,VALID,0,VALID,103.671,VALID,204.783,VALID,21.5542,VALID,167,VALID,0,
2015-11-28, 08:22:04,VALID,918.337,VALID,0,VALID,103.816,VALID,204.998,VALID,21.5331,VALID,141,VALID,0,
2015-11-28, 08:23:04,VALID,918.338,VALID,0,VALID,103.93,VALID,205.213,VALID,21.5721,VALID,161,VALID,0,
2015-11-28, 08:24:04,VALID,918.349,VALID,0,VALID,103.983,VALID,205.213,VALID,21.5916,VALID,148,VALID,0,
2015-11-28, 08:25:04,VALID,918.357,VALID,0,VALID,104,VALID,206.394,VALID,21.6128,VALID,142,VALID,0,
2015-11-28, 08:26:04,VALID,918.376,VALID,0,VALID,103.922,VALID,208.328,VALID,21.6518,VALID,124,VALID,0,
2015-11-28, 08:27:04,VALID,918.402,VALID,0,VALID,103.625,VALID,210.585,VALID,21.7298,VALID,189,VALID,0,
2015-11-28, 08:28:04,VALID,918.394,VALID,0,VALID,103.206,VALID,214.453,VALID,21.8079,VALID,176,VALID,0,
2015-11-28, 08:29:04,VALID,918.4,VALID,0,VALID,102.596,VALID,218.965,VALID,21.8452,VALID,150,VALID,0,
2015-11-28, 08:30:04,VALID,918.411,VALID,0,VALID,101.765,VALID,224.337,VALID,21.8647,VALID,149,VALID,0,
2015-11-28, 08:31:04,VALID,918.432,VALID,0,VALID,101.3,VALID,230.139,VALID,21.9038,VALID,149,VALID,0,
2015-11-28, 08:32:04,VALID,918.42,VALID,0,VALID,101.102,VALID,236.8,VALID,21.964,VALID,162,VALID,0,
2015-11-28, 08:33:04,VALID,918.427,VALID,0,VALID,100.629,VALID,246.04,VALID,21.9428,VALID,152,VALID,0,
2015-11-28, 08:34:04,VALID,918.42,VALID,0,VALID,100.286,VALID,254.85,VALID,21.9038,VALID,165,VALID,0.208984,
2015-11-28, 08:35:04,VALID,918.405,VALID,0,VALID,100.568,VALID,260.437,VALID,21.9623,VALID,174,VALID,0.000390625,
2015-11-28, 08:36:04,VALID,918.394,VALID,0,VALID,100.225,VALID,268.603,VALID,21.9818,VALID,157,VALID,0,
2015-11-28, 08:37:04,VALID,918.366,VALID,0,VALID,100.362,VALID,276.339,VALID,22.042,VALID,172,VALID,0,
2015-11-28, 08:38:04,VALID,918.349,VALID,0,VALID,100.202,VALID,285.471,VALID,22.0794,VALID,157,VALID,0,
2015-11-28, 08:39:04,VALID,918.352,VALID,0,VALID,99.7219,VALID,296.538,VALID,22.0989,VALID,167,VALID,0,
2015-11-28, 08:40:04,VALID,918.359,VALID,0,VALID,99.6152,VALID,310.397,VALID,22.1574,VALID,137,VALID,0,
2015-11-28, 08:41:04,VALID,918.354,VALID,0,VALID,99.6457,VALID,317.166,VALID,22.255,VALID,181,VALID,0,
2015-11-28, 08:42:04,VALID,918.362,VALID,0,VALID,98.0524,VALID,320.497,VALID,22.2745,VALID,155,VALID,0,
2015-11-28, 08:43:04,VALID,918.397,VALID,0,VALID,97.656,VALID,311.902,VALID,22.294,VALID,169,VALID,0,
2015-11-28, 08:44:04,VALID,918.395,VALID,0,VALID,98.2353,VALID,312.224,VALID,22.3525,VALID,162,VALID,0,
2015-11-28, 08:45:04,VALID,918.426,VALID,0,VALID,97.4654,VALID,309.645,VALID,22.3916,VALID,150,VALID,0.0359375,
2015-11-28, 08:46:04,VALID,918.381,VALID,0,VALID,97.1376,VALID,310.183,VALID,22.4518,VALID,172,VALID,0,
2015-11-28, 08:47:04,VALID,918.397,VALID,0,VALID,96.1541,VALID,318.133,VALID,22.4306,VALID,143,VALID,0.438672,
2015-11-28, 08:48:04,VALID,918.4,VALID,0,VALID,96.4667,VALID,345.853,VALID,22.3916,VALID,161,VALID,0.317969,
2015-11-28, 08:49:04,VALID,918.379,VALID,0,VALID,96.7793,VALID,348.969,VALID,22.4501,VALID,169,VALID,0,
2015-11-28, 08:50:04,VALID,918.386,VALID,0,VALID,96.3905,VALID,335.431,VALID,22.5086,VALID,140,VALID,0.833203,
2015-11-28, 08:51:04,VALID,918.346,VALID,0,VALID,96.7107,VALID,336.398,VALID,22.5477,VALID,153,VALID,0.0113281,
2015-11-28, 08:52:04,VALID,918.398,VALID,0,VALID,90.9321,VALID,334.894,VALID,22.4891,VALID,150,VALID,0.0128906,
2015-11-28, 08:53:04,VALID,918.34,VALID,0,VALID,93.768,VALID,345.316,VALID,22.4874,VALID,170,VALID,0.0289063,
2015-11-28, 08:54:04,VALID,918.322,VALID,0,VALID,89.7124,VALID,338.225,VALID,22.5086,VALID,141,VALID,0.00195313,
2015-11-28, 08:55:04,VALID,918.344,VALID,0,VALID,92.1976,VALID,335.539,VALID,22.5086,VALID,136,VALID,0.9,
2015-11-28, 08:56:04,VALID,918.337,VALID,0,VALID,93.0514,VALID,341.77,VALID,22.4891,VALID,150,VALID,0.276172,
2015-11-28, 08:57:04,VALID,918.341,VALID,0,VALID,90.9016,VALID,346.283,VALID,22.5477,VALID,170,VALID,1.0332,
2015-11-28, 08:58:04,VALID,918.385,VALID,0,VALID,96.0322,VALID,349.076,VALID,22.6452,VALID,140,VALID,0.232422,
2015-11-28, 08:59:04,VALID,918.39,VALID,0,VALID,93.1581,VALID,350.151,VALID,22.6843,VALID,159,VALID,0,
2015-11-28, 09:00:04,VALID,918.408,VALID,0,VALID,91.0693,VALID,351.547,VALID,22.7038,VALID,170,VALID,0.0078125,
2015-11-28, 09:01:04,VALID,918.438,VALID,0,VALID,93.646,VALID,355.415,VALID,22.8014,VALID,146,VALID,0,
2015-11-28, 09:02:04,VALID,918.419,VALID,0,VALID,91.8164,VALID,360.465,VALID,22.8599,VALID,166,VALID,0,
2015-11-28, 09:03:04,VALID,918.462,VALID,0,VALID,89.6285,VALID,363.473,VALID,22.9557,VALID,129,VALID,0,
2015-11-28, 09:04:04,VALID,918.493,VALID,0,VALID,87.9437,VALID,362.292,VALID,23.0143,VALID,165,VALID,0,
2015-11-28, 09:05:04,VALID,918.481,VALID,0,VALID,87.2729,VALID,359.82,VALID,23.0533,VALID,170,VALID,0.0113281,
2015-11-28, 09:06:04,VALID,918.482,VALID,0,VALID,87.0442,VALID,358.746,VALID,23.1119,VALID,163,VALID,0,
2015-11-28, 09:07:04,VALID,918.513,VALID,0,VALID,85.428,VALID,357.994,VALID,23.2094,VALID,157,VALID,0.416406,
2015-11-28, 09:08:04,VALID,918.492,VALID,0,VALID,84.4522,VALID,358.531,VALID,23.1917,VALID,160,VALID,1.00469,
2015-11-28, 09:09:04,VALID,918.493,VALID,0,VALID,86.9603,VALID,362.721,VALID,23.1331,VALID,176,VALID,0,
2015-11-28, 09:10:04,VALID,918.473,VALID,0,VALID,86.3123,VALID,365.192,VALID,23.1899,VALID,186,VALID,0.319922,
2015-11-28, 09:11:04,VALID,918.488,VALID,0,VALID,84.0787,VALID,381.094,VALID,23.229,VALID,129,VALID,0.0195313,
2015-11-28, 09:12:04,VALID,918.459,VALID,0,VALID,85.3746,VALID,502.502,VALID,23.307,VALID,128,VALID,0,
2015-11-28, 09:13:04,VALID,918.456,VALID,0,VALID,83.4307,VALID,474.46,VALID,23.3656,VALID,172,VALID,0,
2015-11-28, 09:14:04,VALID,918.49,VALID,0,VALID,83.2096,VALID,437.178,VALID,23.4437,VALID,135,VALID,0,
2015-11-28, 09:15:04,VALID,918.478,VALID,0,VALID,81.2732,VALID,466.402,VALID,23.4437,VALID,178,VALID,0.0121094,
2015-11-28, 09:16:04,VALID,918.494,VALID,0,VALID,82.4549,VALID,444.269,VALID,23.5217,VALID,195,VALID,0,
2015-11-28, 09:17:04,VALID,918.439,VALID,0,VALID,82.188,VALID,451.038,VALID,23.6779,VALID,206,VALID,0,
2015-11-28, 09:18:04,VALID,918.459,VALID,0,VALID,82.7674,VALID,438.79,VALID,23.7737,VALID,174,VALID,0.0246094,
2015-11-28, 09:19:04,VALID,918.475,VALID,0,VALID,82.2795,VALID,417.087,VALID,23.8536,VALID,142,VALID,0,
2015-11-28, 09:20:04,VALID,918.497,VALID,0,VALID,80.9759,VALID,419.021,VALID,23.9121,VALID,130,VALID,0,
2015-11-28, 09:21:04,VALID,918.471,VALID,0,VALID,81.9136,VALID,417.731,VALID,23.8749,VALID,126,VALID,0,
2015-11-28, 09:22:04,VALID,918.49,VALID,0,VALID,81.5782,VALID,412.896,VALID,23.9707,VALID,165,VALID,0,
2015-11-28, 09:23:04,VALID,918.507,VALID,0,VALID,82.9885,VALID,414.186,VALID,24.2849,VALID,166,VALID,0,
2015-11-28, 09:24:04,VALID,918.473,VALID,0,VALID,78.8109,VALID,389.259,VALID,24.5387,VALID,167,VALID,0,
2015-11-28, 09:25:04,VALID,918.491,VALID,0,VALID,78.4297,VALID,374.755,VALID,24.6149,VALID,124,VALID,0,
2015-11-28, 09:26:04,VALID,918.513,VALID,0,VALID,78.1858,VALID,356.49,VALID,24.8511,VALID,149,VALID,0,
2015-11-28, 09:27:04,VALID,918.503,VALID,0,VALID,75.3194,VALID,340.481,VALID,24.9859,VALID,181,VALID,0,
2015-11-28, 09:28:04,VALID,918.489,VALID,0,VALID,75.9063,VALID,326.836,VALID,25.0836,VALID,192,VALID,0,
2015-11-28, 09:29:04,VALID,918.51,VALID,0,VALID,75.4947,VALID,315.662,VALID,25.2398,VALID,189,VALID,0,
2015-11-28, 09:30:04,VALID,918.476,VALID,0,VALID,73.8557,VALID,306.315,VALID,25.357,VALID,196,VALID,0,
2015-11-28, 09:31:04,VALID,918.522,VALID,0,VALID,74.2902,VALID,300.513,VALID,25.5523,VALID,196,VALID,0,
2015-11-28, 09:32:04,VALID,918.531,VALID,0,VALID,73.4059,VALID,288.587,VALID,25.728,VALID,183,VALID,0,
2015-11-28, 09:33:04,VALID,918.509,VALID,0,VALID,72.27,VALID,269.892,VALID,25.728,VALID,165,VALID,0,
2015-11-28, 09:34:04,VALID,918.524,VALID,0,VALID,71.7211,VALID,249.908,VALID,25.7671,VALID,121,VALID,0,
2015-11-28, 09:35:04,VALID,918.512,VALID,0,VALID,75.0449,VALID,235.833,VALID,25.728,VALID,129,VALID,0.00234375,
2015-11-28, 09:36:04,VALID,918.5,VALID,0,VALID,74.9001,VALID,222.726,VALID,25.689,VALID,78,VALID,0,
2015-11-28, 09:37:04,VALID,918.511,VALID,0,VALID,73.909,VALID,212.733,VALID,25.8257,VALID,87,VALID,0,
2015-11-28, 09:38:04,VALID,918.517,VALID,0,VALID,73.2915,VALID,205.642,VALID,25.9038,VALID,173,VALID,0.227344,
2015-11-28, 09:39:04,VALID,918.52,VALID,0,VALID,71.4467,VALID,208.328,VALID,25.9038,VALID,204,VALID,0,
2015-11-28, 09:40:04,VALID,918.509,VALID,0,VALID,71.439,VALID,220.362,VALID,25.7671,VALID,201,VALID,0.00078125,
2015-11-28, 09:41:04,VALID,918.526,VALID,0,VALID,68.9767,VALID,239.486,VALID,25.6694,VALID,176,VALID,1.45742,
2015-11-28, 09:42:04,VALID,918.51,VALID,0,VALID,72.3005,VALID,237.66,VALID,25.7066,VALID,188,VALID,0.347656,
2015-11-28, 09:43:04,VALID,918.533,VALID,0,VALID,69.5256,VALID,260.867,VALID,25.5913,VALID,174,VALID,0.676562,
2015-11-28, 09:44:04,VALID,918.534,VALID,0,VALID,70.7377,VALID,343.704,VALID,25.4722,VALID,197,VALID,0.787109,
2015-11-28, 09:45:04,VALID,918.561,VALID,0,VALID,71.3018,VALID,476.716,VALID,25.4917,VALID,193,VALID,0,
2015-11-28, 09:46:04,VALID,918.55,VALID,0,VALID,70.8292,VALID,421.921,VALID,25.6284,VALID,197,VALID,0,
2015-11-28, 09:47:04,VALID,918.54,VALID,0,VALID,69.8152,VALID,567.182,VALID,25.7847,VALID,179,VALID,0,
2015-11-28, 09:48:04,VALID,918.589,VALID,0,VALID,70.5776,VALID,546.446,VALID,25.8042,VALID,124,VALID,0.0828125,
2015-11-28, 09:49:04,VALID,918.564,VALID,0,VALID,70.5471,VALID,739.517,VALID,25.8628,VALID,132,VALID,0,
2015-11-28, 09:50:04,VALID,918.542,VALID,0,VALID,71.6296,VALID,325.439,VALID,26.0406,VALID,124,VALID,0.00078125,
2015-11-28, 09:51:04,VALID,918.513,VALID,0,VALID,70.0135,VALID,338.977,VALID,25.9429,VALID,94,VALID,0.225,
2015-11-28, 09:52:04,VALID,918.551,VALID,0,VALID,70.4404,VALID,335.754,VALID,25.9038,VALID,94,VALID,0,
2015-11-28, 09:53:04,VALID,918.549,VALID,0,VALID,71.6982,VALID,447.17,VALID,25.8237,VALID,236,VALID,0.0714844,
2015-11-28, 09:54:04,VALID,918.586,VALID,0,VALID,71.0655,VALID,432.88,VALID,25.8237,VALID,149,VALID,0,
2015-11-28, 09:55:04,VALID,918.537,VALID,0,VALID,69.7161,VALID,324.687,VALID,25.9214,VALID,179,VALID,0.136719,
2015-11-28, 09:56:04,VALID,918.522,VALID,0,VALID,69.0758,VALID,326.621,VALID,25.9214,VALID,203,VALID,0.0046875,
2015-11-28, 09:57:04,VALID,918.539,VALID,0,VALID,70.5166,VALID,338.01,VALID,25.7847,VALID,201,VALID,0.513672,
2015-11-28, 09:58:04,VALID,918.488,VALID,0,VALID,71.1722,VALID,466.939,VALID,25.7437,VALID,209,VALID,0.177344,
2015-11-28, 09:59:04,VALID,918.514,VALID,0,VALID,70.4327,VALID,595.546,VALID,25.7847,VALID,179,VALID,0.895312,
2015-11-28, 10:00:04,VALID,918.506,VALID,0,VALID,74.3131,VALID,826.008,VALID,25.6851,VALID,139,VALID,0.60625,
2015-11-28, 10:01:04,VALID,918.472,VALID,0,VALID,74.4503,VALID,507.659,VALID,25.4722,VALID,64,VALID,2.37422,
2015-11-28, 10:02:04,VALID,918.481,VALID,0,VALID,75.0602,VALID,385.714,VALID,25.0798,VALID,71,VALID,2.5793,
2015-11-28, 10:03:04,VALID,918.456,VALID,0,VALID,76.8517,VALID,329.629,VALID,24.7693,VALID,45,VALID,2.0832,
2015-11-28, 10:04:04,VALID,918.475,VALID,0,VALID,79.2378,VALID,289.769,VALID,24.6698,VALID,34,VALID,0.517969,
2015-11-28, 10:05:04,VALID,918.467,VALID,0,VALID,79.2912,VALID,276.124,VALID,24.7283,VALID,46,VALID,0.102734,
2015-11-28, 10:06:04,VALID,918.444,VALID,0,VALID,77.797,VALID,277.413,VALID,24.8259,VALID,1,VALID,0.288672,
2015-11-28, 10:07:04,VALID,918.424,VALID,0,VALID,75.8149,VALID,277.95,VALID,24.8864,VALID,1,VALID,0,
2015-11-28, 10:08:04,VALID,918.386,VALID,0,VALID,76.7449,VALID,300.083,VALID,24.9059,VALID,1,VALID,0,
2015-11-28, 10:09:04,VALID,918.411,VALID,0,VALID,76.905,VALID,269.248,VALID,25.0231,VALID,360,VALID,0,
2015-11-28, 10:10:04,VALID,918.36,VALID,0,VALID,75.6853,VALID,227.99,VALID,25.1793,VALID,360,VALID,0,
2015-11-28, 10:11:04,VALID,918.371,VALID,0,VALID,73.8785,VALID,224.015,VALID,25.2965,VALID,359,VALID,0,
2015-11-28, 10:12:04,VALID,918.346,VALID,0,VALID,74.6332,VALID,228.635,VALID,25.2183,INVALID,360,VALID,0,
2015-11-28, 10:13:04,VALID,918.341,VALID,0,VALID,74.801,VALID,237.875,VALID,25.2574,INVALID,360,VALID,0,
2015-11-28, 10:14:04,VALID,918.314,VALID,0,VALID,71.4848,VALID,255.602,VALID,25.316,VALID,359,VALID,0,
2015-11-28, 10:15:04,VALID,918.349,VALID,0,VALID,71.4924,VALID,287.942,VALID,25.3746,VALID,297,VALID,0.235156,
2015-11-28, 10:16:04,VALID,918.335,VALID,0,VALID,71.2713,VALID,460.923,VALID,25.4722,VALID,275,VALID,0,
2015-11-28, 10:17:04,VALID,918.335,VALID,0,VALID,69.8534,VALID,593.612,VALID,25.5503,VALID,275,VALID,0,
2015-11-28, 10:18:04,VALID,918.33,VALID,0,VALID,68.6946,VALID,373.788,VALID,25.6675,VALID,275,VALID,0.164453,
2015-11-28, 10:19:04,VALID,918.286,VALID,0,VALID,68.2906,VALID,352.514,VALID,25.687,VALID,275,VALID,0,
2015-11-28, 10:20:04,VALID,918.3,VALID,0,VALID,68.7708,VALID,374.003,VALID,25.687,VALID,274,VALID,0,
2015-11-28, 10:21:04,VALID,918.313,VALID,0,VALID,72.8417,VALID,830.413,VALID,25.6089,VALID,147,VALID,0.283984,
2015-11-28, 10:22:04,VALID,918.279,VALID,0,VALID,71.4848,VALID,952.036,VALID,25.648,VALID,159,VALID,0,
2015-11-28, 10:23:04,VALID,918.279,VALID,0,VALID,71.6296,VALID,906.588,VALID,25.9409,VALID,174,VALID,0,
2015-11-28, 10:24:04,VALID,918.249,VALID,0,VALID,72.857,VALID,881.447,VALID,26.3316,VALID,61,VALID,0.170703,
2015-11-28, 10:25:04,VALID,918.244,VALID,0,VALID,71.5534,VALID,876.075,VALID,26.4898,VALID,16,VALID,1.50977,
2015-11-28, 10:26:04,VALID,918.245,VALID,0,VALID,69.3121,VALID,829.661,VALID,26.4097,VALID,21,VALID,1.70156,
2015-11-28, 10:27:04,VALID,918.259,VALID,0,VALID,68.4049,VALID,828.586,VALID,26.273,VALID,354,VALID,1.69687,
2015-11-28, 10:28:04,VALID,918.247,VALID,0,VALID,70.8368,VALID,841.801,VALID,26.3336,VALID,2,VALID,0.883203,
2015-11-28, 10:29:04,VALID,918.25,VALID,0,VALID,68.2448,VALID,875.001,VALID,26.4488,VALID,15,VALID,1.18594,
2015-11-28, 10:30:04,VALID,918.237,VALID,0,VALID,64.5703,VALID,630.68,VALID,26.5855,VALID,9,VALID,0,
2015-11-28, 10:31:04,VALID,918.224,VALID,0,VALID,66.6287,VALID,586.521,VALID,26.8395,VALID,16,VALID,0.00429688,
2015-11-28, 10:32:04,VALID,918.257,VALID,0,VALID,64.7914,VALID,727.269,VALID,27.0544,VALID,28,VALID,0,
2015-11-28, 10:33:04,VALID,918.248,VALID,0,VALID,64.3874,VALID,560.091,VALID,26.9762,VALID,172,VALID,0.0632813,
2015-11-28, 10:34:04,VALID,918.241,VALID,0,VALID,64.7685,VALID,910.886,VALID,27.0935,VALID,169,VALID,0,
2015-11-28, 10:35:04,VALID,918.234,VALID,0,VALID,62.3595,VALID,273.115,VALID,27.3084,VALID,177,VALID,0.282031,
2015-11-28, 10:36:04,VALID,918.239,VALID,0,VALID,60.3165,VALID,252.379,VALID,27.3865,VALID,180,VALID,0,
2015-11-28, 10:37:04,VALID,918.244,VALID,0,VALID,61.803,VALID,252.272,VALID,27.2302,VALID,180,VALID,0,
2015-11-28, 10:38:04,VALID,918.248,VALID,0,VALID,61.5972,VALID,268.281,VALID,27.2302,VALID,140,VALID,0,
2015-11-28, 10:39:04,VALID,918.226,VALID,0,VALID,60.9035,VALID,282.463,VALID,27.0914,VALID,159,VALID,0,
2015-11-28, 10:40:04,VALID,918.221,VALID,0,VALID,62.4891,VALID,778.733,VALID,26.9546,VALID,158,VALID,0,
2015-11-28, 10:41:04,VALID,918.236,VALID,0,VALID,64.5703,VALID,541.611,VALID,27.0544,VALID,119,VALID,0.0882813,
2015-11-28, 10:42:04,VALID,918.236,VALID,0,VALID,67.2309,VALID,434.385,VALID,27.0719,VALID,64,VALID,0.405469,
2015-11-28, 10:43:04,VALID,918.242,VALID,0,VALID,68.6717,VALID,354.126,VALID,26.7593,VALID,48,VALID,1.24609,
2015-11-28, 10:44:04,VALID,918.269,VALID,0,VALID,70.1888,VALID,327.051,VALID,26.31,VALID,16,VALID,1.20781,
2015-11-28, 10:45:04,VALID,918.25,VALID,0,VALID,72.4225,VALID,348.969,VALID,26.0171,VALID,16,VALID,0.515625,